Regional Weather Roundup
Issued by NWS

Home | Current Version | Previous Version | Graphics & Text | Print | Product List | Glossary Off
Versions: 1 2 3 4 5 6 7 8 9 10 11 12 13 14 15 16 17 18 19 20 21 22 23 24 25 26 27 28 29 30 31 32 33 34 35 36 37 38 39 40 41 42 43 44 45 46 47 48 49 50

000
ASUS43 KDTX 221001
RWRMI
MICHIGAN HOURLY REGIONAL WEATHER ROUNDUP
NATIONAL WEATHER SERVICE DETROIT/PONTIAC MI
600 AM EDT MON SEP 22 2014

NOTE: "FAIR" INDICATES FEW OR NO CLOUDS BELOW 12,000 FEET WITH NO
SIGNIFICANT WEATHER AND/OR OBSTRUCTION TO VISIBILITY.

MIZ047>049-052>055-059>063-066>070-074>076-081>083-221100-
SOUTHEAST LOWER MICHIGAN

CITY           SKY/WX    TMP DP  RH WIND       PRES   REMARKS
ADRIAN         CLOUDY    48  37  65 N10       30.13R
ALMA           CLOUDY    44  41  88 W5        30.13R
ANN ARBOR      CLOUDY    47  35  63 N15G21    30.11R
BAD AXE        CLOUDY    47  41  78 NW7       30.08R
CARO           CLOUDY    48  40  76 NW7       30.09R
DETROIT CITY   CLOUDY    51  37  58 NW9       30.10R
DETROIT        CLOUDY    48  37  65 NW10      30.11R
FLINT          CLOUDY    49  39  68 NW9       30.12R
GROSSE ILE     CLOUDY    48  39  71 NW7       30.09R
HILLSDALE      CLOUDY    47  40  76 N6        30.13R
HOWELL         CLOUDY    46  40  82 NW3       30.12R

CITY           SKY/WX    TMP DP  RH WIND       PRES   REMARKS
JACKSON        CLOUDY    46  39  76 VRB3      30.13R
LAMBERTVILLE   CLOUDY    48  37  66 N8        30.13R
LANSING        CLOUDY    45  39  79 W7        30.14R
LAPEER         CLOUDY    46  40  78 NW5       30.10R
MASON          CLOUDY    46  39  77 NW5       30.13R
MONROE         CLOUDY    48  37  66 NW7       30.10R
MT. CLEMENS    CLOUDY    48  38  69 NW9       30.07R
PONTIAC        CLOUDY    47  37  68 NW8       30.09R
PORT HOPE        N/A     51  40  65 NW5       30.05R
PORT HURON     CLOUDY    46  41  81 NW6       30.08R
TRI CITIES     MOCLDY    47  40  76 W7        30.12R
TROY           CLOUDY    49  38  64 NW7       30.11R
SAGINAW HB     CLOUDY    46  41  81 NW7       30.10S
$$
MIZ043>046-050>051-056>058-064>065-071>073-077>080-221100-
SOUTHWEST LOWER MICHIGAN

CITY           SKY/WX    TMP DP  RH WIND       PRES   REMARKS
BATTLE CREEK   PTCLDY    45  37  73 NW5       30.15R
BENTON HARBOR  MOCLDY    44  38  79 NE3       30.18R
BIG RAPIDS     CLEAR     41  41  99 W6        30.14R
COLDWATER      CLOUDY    47  38  71 N7        30.15R
FREMONT        FAIR      40  38  95 CALM      30.16R
HOLLAND        CLEAR     43  39  86 CALM      30.18R
GRAND RAPIDS   CLEAR     45  38  76 W8        30.16R
IONIA          FAIR      43  39  87 W5        30.14R
KALAMAZOO      PTCLDY    42  36  79 NW6       30.17R
LUDINGTON      CLOUDY    42  41  95 CALM      30.17R
MARSHALL       CLOUDY    45  38  77 NW3       30.14R
MOUNT PLEASANT CLOUDY    45  41  86 W7        30.12R
MUSKEGON       PTCLDY    42  38  85 CALM      30.17R
SOUTH HAVEN    MOCLDY    44  39  84 CALM      30.18R
$$
MIZ016>042-221100-
NORTHERN LOWER MICHIGAN

CITY           SKY/WX    TMP DP  RH WIND       PRES   REMARKS
ALPENA         CLOUDY    45  38  76 W3        30.07R
BEAVER ISLAND  MOCLDY    45  38  78 CALM      30.13S
BELLAIRE       MOCLDY    46  40  81 CALM      30.13R
CADILLAC       MOCLDY    40  39  95 NW5       30.12R
CHARLEVOIX     MOCLDY    48  40  74 NW12      30.15R
FRANKFORT      CLEAR     47  40  74 N5        30.15R
GAYLORD        PTCLDY    41  35  79 W3        30.09S
GRAYLING       CLOUDY    43  39  85 CALM      30.11S
HARBOR SPRINGS CLOUDY    44  40  84 CALM      30.11R
HOUGHTON LAKE  CLOUDY    44  40  85 NW7       30.11R
MANISTEE       PTCLDY    43  37  81 CALM      30.17R
OSCODA         CLOUDY    45  41  86 NW3       30.08R
PELLSTON       CLOUDY    43  39  86 NW3       30.11R
ROGERS CITY    CLOUDY    46  38  74 N7        30.10R
TRAVERSE CITY  PTCLDY    48  38  68 NW7       30.12S
$$
MIZ007>008-015-221100-
EASTERN UPPER MICHIGAN

CITY           SKY/WX    TMP DP  RH WIND       PRES   REMARKS
KINROSS        CLOUDY    43  39  87 W3        30.09R
MACKINAC ISLAN CLOUDY    45  38  77 NW6       30.09R
NEWBERRY       CLEAR     34  33  97 W6        30.11R WCI  29
S. S. MARIE    MOCLDY    43  33  68 N5        30.08R
$$
MIZ004>006-011>014-085-221100-
CENTRAL UPPER MICHIGAN

CITY           SKY/WX    TMP DP  RH WIND       PRES   REMARKS
MANISTIQUE     CLEAR     33  32  98 CALM      30.13R
ESCANABA       CLEAR     36  34  93 W6        30.15R WCI  31
MENOMINEE      CLEAR     37  36  93 W5        30.17R WCI  34
SAWYER-GWINN   CLEAR     33  32  95 CALM      30.12S
$$
MIZ001>003-009>011-084-221100-
WESTERN UPPER MICHIGAN

CITY           SKY/WX    TMP DP  RH WIND       PRES   REMARKS
IRON MOUNTAIN  CLEAR     34  32  92 CALM      30.14R
HOUGHTON       CLOUDY    47  43  86 W8        30.10S
COPPER HARBOR    N/A     45  39  79 W6        30.09S
IRONWOOD       CLOUDY    43  41  93 CALM      30.15S
$$

ABBREVIATIONS USED IN REMARKS
   TC - TEMPERATURE IN CELSIUS
  WCI - WIND CHILL INDEX
   HX - HEAT INDEX
  VSB - VISIBILITY




USA.gov is the U.S. government's official web portal to all federal, state and local government web resources and services.